{"data":{"norad_id":66830,"epoch":"2026-05-25T03:24:35.953056Z","epoch_age_seconds":59389,"freshness":"FRESH","line1":"1 66830U 25280K   26145.14208279  .00004295  00000+0  36747-3 0  9990","line2":"2 66830  70.0008 141.8609 0003926 269.0490  91.0219 14.98337301 27526","mean_motion":14.98337301,"eccentricity":0.0003926,"inclination_deg":70.0008,"raan_deg":141.8609,"arg_perigee_deg":269.049,"mean_anomaly_deg":91.0219,"bstar":0.00036747,"rev_number":2752,"period_min":96.106530821794,"perigee_km":569.30467643086,"apogee_km":574.76195016086,"semimajor_km":6950.1703132959,"source":"CELESTRAK","updated_at":"2026-05-25T13:38:21.335537Z"}}